Tacoma Narrows, WA
on Monday, November 19, 2012

Monday
Previous Day Next Day
Daily Summary
 ActualAverageRecord
Temperature
Mean Temperature °F °F  
Max Temperature 55°F 48°F 55°F (2001)
Min Temperature 48°F 39°F 30°F (2011)
Degree Days
Heating Degree Days 14    
Growing Degree Days2 (Base °F )  
Moisture
Dew Point 47°F   
Average Humidity 87    
Maximum Humidity 100    
Minimum Humidity 75    
Precipitation
Precipitation 2.18 in in in ()
Wind
Wind Speed 8 mph   
Max Wind Speed 28 mph   
Max Gust Speed 39 mph   
Visibility 6 miles   
Events Rain   
Averages and records for this station are not official NWS values.
Key: T is trace of precipitation, MM is missing value
Source: NWS Daily Summary
Seasonal Weather Averages
Time(PST)TemperatureDew PointHumidity Pressure Visibility Wind DirectionWind SpeedGust SpeedPrecipitationEvents Conditions
12:53 AM 48.0°F 42.1°F 80% 29.57 in 10.0 miles SSE 6.9 mph - N/A   Overcast
1:53 AM 48.9°F 43.0°F 80% 29.55 in 10.0 miles South 11.5 mph 18.4 mph 0.00 in   Overcast
2:53 AM 48.9°F 44.1°F 83% 29.56 in 10.0 miles SSW 10.4 mph - 0.01 in Rain Light Rain
3:53 AM 48.0°F 45.0°F 89% 29.57 in 5.0 miles South 8.1 mph - 0.10 in Rain Rain
4:46 AM 48.2°F 44.6°F 87% 29.54 in 7.0 miles SE 3.5 mph - 0.17 in Rain Light Rain
4:53 AM 48.0°F 45.0°F 89% 29.55 in 6.0 miles SE 3.5 mph - 0.19 in Rain Light Rain
5:26 AM 48.2°F 44.6°F 87% 29.52 in 4.0 miles ESE 4.6 mph - 0.13 in Rain Rain
5:53 AM 48.0°F 46.0°F 93% 29.51 in 4.0 miles Calm Calm - 0.26 in Rain Rain
6:07 AM 48.2°F 46.4°F 93% 29.51 in 4.0 miles Calm Calm - 0.06 in Rain Rain
6:44 AM 48.2°F 46.4°F 93% 29.46 in 6.0 miles ENE 5.8 mph - 0.21 in Rain Light Rain
6:53 AM 48.9°F 46.0°F 90% 29.47 in 6.0 miles Variable 4.6 mph - 0.24 in Rain Rain
7:28 AM 50.0°F 46.4°F 87% 29.45 in 5.0 miles South 8.1 mph - 0.15 in Rain Rain
7:42 AM 48.2°F 46.4°F 93% 29.47 in 2.5 miles NW 5.8 mph - 0.24 in Rain Rain
7:53 AM 48.9°F 46.9°F 93% 29.46 in 2.0 miles NNW 3.5 mph - 0.33 in Rain Heavy Rain
8:08 AM 48.2°F 46.4°F 93% 29.45 in 2.5 miles Calm Calm - 0.09 in Rain Rain
8:39 AM 48.2°F 46.4°F 93% 29.44 in 2.0 miles NNE 3.5 mph - 0.26 in Rain Rain
8:46 AM 48.2°F 48.2°F 100% 29.44 in 2.0 miles Calm Calm - 0.29 in Rain Rain
8:53 AM 48.9°F 48.0°F 97% 29.44 in 2.0 miles NNE 3.5 mph - 0.32 in Rain Rain
8:59 AM 48.2°F 46.4°F 93% 29.44 in 1.8 miles Calm Calm - 0.03 in Rain Rain
9:12 AM 48.2°F 48.2°F 100% 29.43 in 3.0 miles Calm Calm - 0.06 in Rain Light Rain
9:18 AM 48.2°F 48.2°F 100% 29.43 in 2.0 miles Calm Calm - 0.07 in Rain Light Rain
9:53 AM 52.0°F 48.9°F 89% 29.39 in 2.0 miles SSE 5.8 mph - 0.11 in Rain Light Rain
10:00 AM 51.8°F 48.2°F 88% 29.39 in 7.0 miles SSE 8.1 mph - 0.01 in Rain Light Rain
10:18 AM 53.6°F 48.2°F 82% 29.38 in 7.0 miles South 16.1 mph 23.0 mph 0.03 in Rain Light Rain
10:53 AM 55.0°F 48.9°F 80% 29.38 in 10.0 miles South 18.4 mph 27.6 mph 0.03 in Rain Light Rain
11:53 AM 55.0°F 50.0°F 83% 29.37 in 7.0 miles South 21.9 mph 32.2 mph 0.05 in Rain Light Rain
12:53 PM 54.0°F 50.0°F 86% 29.40 in 2.5 miles South 27.6 mph 39.1 mph 0.15 in Rain Rain
1:00 PM 53.6°F 51.8°F 94% 29.42 in 2.5 miles SSW 21.9 mph 39.1 mph 0.03 in Rain Rain
1:10 PM 53.6°F 51.8°F 94% 29.42 in 3.0 miles SSW 15.0 mph 29.9 mph 0.07 in Rain Light Rain
1:17 PM 53.6°F 50.0°F 88% 29.43 in 5.0 miles SSW 19.6 mph 27.6 mph 0.08 in Rain Light Rain
1:53 PM 54.0°F 46.0°F 75% 29.43 in 10.0 miles South 24.2 mph 34.5 mph 0.14 in   Overcast
2:53 PM 54.0°F 46.0°F 75% 29.44 in 10.0 miles South 13.8 mph 21.9 mph 0.00 in   Mostly Cloudy
3:24 PM 53.6°F 48.2°F 82% 29.43 in 2.5 miles SSW 15.0 mph 29.9 mph 0.11 in Rain Rain
3:26 PM 53.6°F 48.2°F 82% 29.43 in 3.0 miles SSW 16.1 mph 29.9 mph 0.11 in Rain Light Rain
3:53 PM 53.1°F 48.0°F 83% 29.44 in 3.0 miles South 12.7 mph - 0.14 in Rain Light Rain
4:53 PM 55.0°F 48.0°F 77% 29.46 in 10.0 miles South 23.0 mph 33.4 mph 0.02 in Rain Light Rain
5:53 PM 53.1°F 48.9°F 86% 29.51 in 10.0 miles SSW 10.4 mph - 0.09 in   Overcast
5:54 PM 53.6°F 48.2°F 82% 29.51 in 10.0 miles SSW 11.5 mph - N/A   Mostly Cloudy
6:53 PM 52.0°F 48.0°F 86% 29.55 in 10.0 miles SW 6.9 mph - N/A   Mostly Cloudy
7:53 PM 50.0°F 44.1°F 80% 29.60 in 10.0 miles South 8.1 mph - N/A   Scattered Clouds
8:53 PM 50.0°F 43.0°F 77% 29.63 in 10.0 miles SSW 5.8 mph - N/A   Clear
9:53 PM 50.0°F 46.0°F 86% 29.66 in 10.0 miles SSE 5.8 mph - N/A   Mostly Cloudy
10:53 PM 50.0°F 46.0°F 86% 29.67 in 10.0 miles South 11.5 mph - 0.00 in   Mostly Cloudy
11:53 PM 48.9°F 46.0°F 90% 29.70 in 10.0 miles Calm Calm - N/A   Mostly Cloudy
Moon Phase
Nov. 19 Nov. 20 Nov. 28 Dec. 06 Dec. 13
Sunrise:07:21 AM (PST) Moon Rise:12:17 PM (PST)11/19
Sunset:04:30 PM (PST) Moon Set:11:14 PM (PST)11/19

Copyright © 2014 The Weather Underground, Inc.